Weather History for KPSO - April, 2014

Change the Weather History Date:

Wednesday, April 30, 2014

  Actual Average (KDRO) Record (KDRO)
Temperature  
Mean Temperature 37 °F 48 °F  
Max Temperature 51 °F 65 °F 81 °F (1981)
Min Temperature 23 °F 32 °F 16 °F (1970)
Degree Days  
Heating Degree Days 28 17  
Month to date heating degree days 608  
Since 1 July heating degree days 6636  
Cooling Degree Days 0 0  
Month to date cooling degree days 0  
Year to date cooling degree days 0  
Moisture  
Dew Point 11 °F    
Average Humidity 36    
Maximum Humidity 66    
Minimum Humidity 15    
Precipitation  
Precipitation 0.00 in 0.03 in 0.56 in (1973)
Month to date precipitation 1.10  
Year to date precipitation 4.63  
Sea Level Pressure  
Sea Level Pressure 30.22 in    
Wind  
Wind Speed 2 mph (WSW)    
Max Wind Speed 13 mph    
Max Gust Speed 18 mph    
Visibility 10 miles    
Events      
T = Trace of Precipitation, MM = Missing Value Source: NWS Daily Summary

Daily Weather History Graph

Daily Weather History Graph

Search for Another Location

Airport or City:

Trip Planner

Search our weather history database for the weather conditions in past years. The results will help you decide how hot, cold, wet, or windy it might be!

Date:

Astronomy

Apr. 30, 2014 Rise Set
Actual Time 6:14 AM MDT 7:56 PM MDT
Civil Twilight 5:46 AM MDT 8:24 PM MDT
Nautical Twilight 5:12 AM MDT 8:58 PM MDT
Astronomical Twilight 4:37 AM MDT 9:34 PM MDT
Moon 7:18 AM MDT 9:37 PM MDT
Length of Visible Light 14h 38m
Length of Day
13h 42m
Waxing Crescent, 3% of the Moon is Illuminated
Apr 30
Waxing Crescent
May 6
First Quarter
May 14
Full
May 21
Last Quarter
May 28
New

Hourly Weather History & Observations

Time (MDT) Temp. Windchill Dew Point Humidity Pressure Visibility Wind Dir Wind Speed Gust Speed Precip Events Conditions
12:15 AM 29.8 °F - 10.4 °F 44% 30.25 in 10.0 mi Calm Calm - N/A   Clear
12:35 AM 27.9 °F - 12.6 °F 53% 30.25 in 10.0 mi Calm Calm - N/A   Clear
12:55 AM 28.9 °F - 10.6 °F 46% 30.26 in 10.0 mi Calm Calm - N/A   Clear
1:15 AM 27.1 °F - 12.7 °F 55% 30.26 in 10.0 mi Calm Calm - N/A   Clear
1:35 AM 27.5 °F - 12.6 °F 54% 30.26 in 10.0 mi Calm Calm - N/A   Clear
1:55 AM 27.9 °F - 16.0 °F 61% 30.26 in 10.0 mi Calm Calm - N/A   Clear
2:15 AM 27.1 °F - 12.2 °F 53% 30.25 in 10.0 mi Calm Calm - N/A   Clear
2:35 AM 27.0 °F 23.0 °F 14.2 °F 59% 30.25 in 10.0 mi NW 3.5 mph - N/A   Clear
2:55 AM 25.9 °F - 13.8 °F 60% 30.24 in 10.0 mi Calm Calm - N/A   Clear
3:15 AM 25.7 °F - 14.2 °F 62% 30.24 in 10.0 mi Calm Calm - N/A   Clear
3:35 AM 28.4 °F 24.6 °F 11.7 °F 50% 30.24 in 10.0 mi NNW 3.5 mph - N/A   Clear
3:55 AM 29.8 °F 26.3 °F 10.4 °F 44% 30.24 in 10.0 mi NW 3.5 mph - N/A   Clear
4:15 AM 28.9 °F - 10.9 °F 47% 30.25 in 10.0 mi Calm Calm - N/A   Clear
4:35 AM 29.3 °F - 10.9 °F 46% 30.24 in 10.0 mi Calm Calm - N/A   Clear
4:55 AM 26.4 °F - 12.7 °F 56% 30.24 in 10.0 mi Calm Calm - N/A   Clear
5:15 AM 27.0 °F - 13.1 °F 56% 30.24 in 10.0 mi Calm Calm - N/A   Clear
5:35 AM 25.2 °F - 12.0 °F 58% 30.24 in 10.0 mi Calm Calm - N/A   Clear
5:55 AM 25.7 °F - 12.6 °F 58% 30.24 in 10.0 mi Calm Calm - N/A   Clear
6:15 AM 25.2 °F - 12.9 °F 60% 30.24 in 10.0 mi Calm Calm - N/A   Clear
6:35 AM 23.2 °F - 13.5 °F 66% 30.25 in 10.0 mi Calm Calm - N/A   Clear
6:55 AM 25.5 °F 21.3 °F 13.8 °F 61% 30.26 in 10.0 mi West 3.5 mph - N/A   Clear
7:15 AM 29.3 °F - 14.0 °F 53% 30.26 in 10.0 mi Calm Calm - N/A   Clear
7:35 AM 32.4 °F - 17.2 °F 54% 30.26 in 10.0 mi Calm Calm - N/A   Clear
7:55 AM 34.5 °F - 11.3 °F 38% 30.26 in 10.0 mi Calm Calm - N/A   Clear
8:15 AM 36.5 °F - 7.7 °F 30% 30.26 in 10.0 mi Calm Calm - N/A   Clear
8:35 AM 37.9 °F - 8.1 °F 29% 30.26 in 10.0 mi Calm Calm - N/A   Clear
9:15 AM 39.2 °F - 5.9 °F 25% 30.26 in 10.0 mi Calm Calm - N/A   Clear
9:35 AM 41.4 °F - 7.0 °F 24% 30.26 in 10.0 mi Calm Calm - N/A   Clear
9:55 AM 42.4 °F - 7.9 °F 24% 30.25 in 10.0 mi Calm Calm - N/A   Clear
10:15 AM 42.6 °F 39.9 °F 6.1 °F 22% 30.25 in 10.0 mi SW 4.6 mph - N/A   Clear
10:35 AM 43.7 °F - 4.6 °F 20% 30.24 in 10.0 mi Calm Calm - N/A   Clear
10:55 AM 44.4 °F 42.9 °F 3.9 °F 19% 30.24 in 10.0 mi SSW 3.5 mph - N/A   Clear
11:15 AM 44.6 °F 42.2 °F 2.7 °F 18% 30.24 in 10.0 mi SSW 4.6 mph 9.2 mph N/A   Clear
11:35 AM 46.6 °F - 4.6 °F 18% 30.23 in 10.0 mi Calm Calm - N/A   Clear
11:55 AM 45.3 °F 41.1 °F 3.7 °F 18% 30.22 in 10.0 mi South 8.1 mph - N/A   Clear
12:15 PM 46.9 °F - 3.2 °F 17% 30.22 in 10.0 mi WSW 6.9 mph - N/A   Clear
12:35 PM 48.6 °F - 6.3 °F 18% 30.21 in 10.0 mi WSW 8.1 mph - N/A   Clear
12:55 PM 48.6 °F - 5.0 °F 17% 30.20 in 10.0 mi WSW 9.2 mph - N/A   Scattered Clouds
1:15 PM 50.0 °F - 5.4 °F 16% 30.19 in 10.0 mi West 8.1 mph - N/A   Mostly Cloudy
1:35 PM 49.3 °F - 3.0 °F 15% 30.19 in 10.0 mi SSW 9.2 mph 17.3 mph N/A   Overcast
1:55 PM 49.1 °F - 4.1 °F 16% 30.18 in 10.0 mi SSW 10.4 mph 18.4 mph N/A   Overcast
2:15 PM 49.5 °F - 3.6 °F 15% 30.18 in 10.0 mi WSW 8.1 mph 16.1 mph N/A   Overcast
2:35 PM 49.8 °F - 5.5 °F 17% 30.17 in 10.0 mi Calm Calm - N/A   Overcast
2:55 PM 49.8 °F - 4.8 °F 16% 30.17 in 10.0 mi West 5.8 mph - N/A   Overcast
3:15 PM 49.5 °F - 3.6 °F 15% 30.17 in 10.0 mi SSE 3.5 mph - N/A   Overcast
3:35 PM 49.8 °F - 3.6 °F 15% 30.16 in 10.0 mi SSW 4.6 mph - N/A   Overcast
3:55 PM 49.5 °F - 3.6 °F 15% 30.16 in 10.0 mi WSW 3.5 mph - N/A   Overcast
4:15 PM 50.0 °F - 4.5 °F 16% 30.15 in 10.0 mi WSW 5.8 mph - N/A   Overcast
4:35 PM 50.2 °F - 4.1 °F 15% 30.15 in 10.0 mi SW 6.9 mph - N/A   Overcast
4:55 PM 50.2 °F - 4.5 °F 16% 30.16 in 10.0 mi Calm Calm - N/A   Overcast
5:15 PM 50.9 °F - 4.6 °F 15% 30.16 in 10.0 mi SSW 10.4 mph 18.4 mph N/A   Overcast
5:35 PM 51.3 °F - 4.5 °F 15% 30.16 in 10.0 mi SE 6.9 mph - N/A   Overcast
5:55 PM 50.9 °F - 4.8 °F 15% 30.16 in 10.0 mi WSW 6.9 mph - N/A   Overcast
6:15 PM 49.1 °F - 12.7 °F 23% 30.17 in 10.0 mi East 5.8 mph - N/A   Overcast
6:35 PM 48.4 °F - 13.8 °F 25% 30.17 in 10.0 mi ENE 3.5 mph - N/A   Overcast
6:55 PM 48.2 °F - 10.6 °F 22% 30.17 in 10.0 mi SSW 6.9 mph 16.1 mph N/A   Overcast
7:15 PM 47.8 °F - 10.4 °F 22% 30.19 in 10.0 mi North 3.5 mph - N/A   Overcast
7:35 PM 47.1 °F - 10.6 °F 23% 30.19 in 10.0 mi Calm Calm - N/A   Overcast
7:55 PM 45.0 °F 40.6 °F 18.5 °F 35% 30.20 in 10.0 mi NE 8.1 mph - N/A   Overcast
8:15 PM 43.5 °F 37.1 °F 20.1 °F 39% 30.21 in 10.0 mi NNE 12.7 mph - N/A   Overcast
8:35 PM 42.8 °F 37.5 °F 21.2 °F 42% 30.22 in 10.0 mi NE 9.2 mph - N/A   Mostly Cloudy
8:55 PM 42.1 °F 40.2 °F 21.6 °F 44% 30.23 in 10.0 mi North 3.5 mph - N/A   Overcast
9:15 PM 42.1 °F - 21.4 °F 44% 30.24 in 10.0 mi Calm Calm - N/A   Mostly Cloudy
9:35 PM 42.8 °F - 21.0 °F 42% 30.25 in 10.0 mi Calm Calm - N/A   Mostly Cloudy
9:55 PM 43.0 °F - 21.4 °F 42% 30.26 in 10.0 mi Calm Calm - N/A   Mostly Cloudy
10:15 PM 41.9 °F - 22.1 °F 45% 30.26 in 10.0 mi Calm Calm - N/A   Scattered Clouds
10:35 PM 38.1 °F - 23.0 °F 55% 30.26 in 10.0 mi Calm Calm - N/A   Scattered Clouds
10:55 PM 37.2 °F 34.7 °F 23.4 °F 57% 30.26 in 10.0 mi North 3.5 mph - N/A   Mostly Cloudy
11:15 PM 37.9 °F - 23.0 °F 55% 30.26 in 10.0 mi Calm Calm - N/A   Mostly Cloudy
11:35 PM 36.0 °F - 23.0 °F 59% 30.26 in 10.0 mi Calm Calm - N/A   Mostly Cloudy
11:55 PM 34.0 °F - 22.8 °F 64% 30.26 in 10.0 mi Calm Calm - N/A   Scattered Clouds